Regional Weather Roundup
Issued by NWS

Home | Current Version | Previous Version | Text Only | Print | Product List | Glossary Off
Versions: 1 2 3 4 5 6 7 8 9 10 11 12 13 14 15 16 17 18 19 20 21 22 23 24 25 26 27 28 29 30 31 32 33 34 35 36 37 38 39 40 41 42 43 44 45 46 47 48 49 50

000
ASUS43 KMKX 210810
RWRWI

WISCONSIN REGIONAL WEATHER ROUNDUP
NATIONAL WEATHER SERVICE MILWAUKEE/SULLIVAN WI
200 AM CST SUN JAN 21 2018

NOTE: "FAIR" INDICATES FEW OR NO CLOUDS BELOW 12,000 FEET WITH NO
SIGNIFICANT WEATHER AND/OR OBSTRUCTIONS TO VISIBILITY.

WIZ001-002-006>008-014>016-023>028-210900-
NORTHWEST WISCONSIN

CITY           SKY/WX    TMP DP  RH WIND       PRES   REMARKS
SUPERIOR ARPT  FAIR      28  26  91 CALM      29.96R
ASHLAND        FAIR      30  27  88 SW7       29.95R WCI  23
HAYWARD        CLOUDY    26  24  92 CALM      29.94S
SIREN          CLOUDY    31  29  93 CALM      29.96S
CUMBERLAND     CLOUDY    32  30  93 N5        29.93F WCI  27
RICE LAKE      CLOUDY    33  31  92 CALM      29.95S
CHETEK         CLOUDY    28  28 100 CALM      29.95R
LADYSMITH      CLOUDY    32  30  94 CALM      29.95S
EAU CLAIRE     CLOUDY    28  28 100 CALM      29.95R FOG
MENOMONIE      CLOUDY    29  29  97 CALM      29.96R FOG
NEW RICHMOND   CLOUDY    31  29  94 CALM      29.95S FOG
OSCEOLA        CLOUDY    32  32 100 CALM      29.98R
$$

WIZ003>005-009-010-017-018-210900-
NORTH CENTRAL WISCONSIN

CITY           SKY/WX    TMP DP  RH WIND       PRES   REMARKS
MANITOWISH WTR FAIR      23  23 100 CALM      29.92R
ARBOR VITAE    CLOUDY    29  28  96 CALM      29.92R FOG
WOODRUFF       CLOUDY    29  28  96 CALM      29.92R FOG
RHINELANDER    CLOUDY    32  30  92 CALM      29.93R
EAGLE RIVER    MOCLDY    26  26 100 CALM      29.92R FOG
LAND O LAKES   FAIR      23  22  97 CALM      29.93S
PHILLIPS       CLOUDY    28  28 100 CALM      29.92R
TOMAHAWK       CLOUDY    30  28  92 CALM      29.94R
MEDFORD        CLOUDY    29  27  94 CALM      29.93R
MERRILL        CLOUDY    30  29  99 CALM      29.94S FOG
$$

WIZ029-030-035-036-043>047-210900-
CENTRAL WISCONSIN

CITY           SKY/WX    TMP DP  RH WIND       PRES   REMARKS
WAUSAU         CLOUDY    29  28  96 CALM      29.93R FOG
MOSINEE        CLOUDY    32  32 100 CALM      29.95S
MARSHFIELD     CLOUDY    30  28  92 CALM      29.92S
STEVENS POINT  CLOUDY    26  26 100 CALM      29.95R
WAUPACA        FAIR      30  28  90 CALM      29.96S
WAUTOMA        FAIR      24  23  96 CALM      29.96S FOG
WISC RAPIDS    MOCLDY    26  23  88 CALM      29.95R FOG
CAMP DOUGLAS   FAIR      23  23  99 CALM      29.94R
$$

WIZ011>013-019>022-031-037>040-048>050-210900-
NORTHEAST WISCONSIN

CITY           SKY/WX    TMP DP  RH WIND       PRES   REMARKS
ANTIGO         CLOUDY    28  27  98 CALM      29.94R
SHAWANO        CLOUDY    32  29  90 CALM      29.95S
OCONTO         FAIR      28  27  96 CALM      29.97S
STURGEON BAY   FAIR      32  29  88 CALM      29.97S
GREEN BAY      FAIR      31  28  89 CALM      29.97R FOG
MANITOWOC      FAIR      27  25  92 CALM      29.98R FOG
APPLETON       MOCLDY    32  28  86 CALM      29.94S
CLINTONVILLE   MOCLDY    30  28  93 CALM      29.95S
OSHKOSH        FAIR      28  26  92 CALM      29.96R FOG
$$

WIZ032>034-041-042-053>061-210900-
SOUTHWEST WISCONSIN

CITY           SKY/WX    TMP DP  RH WIND       PRES   REMARKS
LA CROSSE      FOG       24  22  91 CALM      29.95S VSB 1/4
SPARTA         FAIR      23  23  99 CALM      29.95S
VIROQUA        FAIR      34  33  96 CALM      29.92F
BOSCOBEL       FAIR      25  23  92 CALM      29.96S FOG
PRAIRIE DU CHI FAIR      27  25  93 E3        29.95S FOG
PLATTEVILLE    FAIR      33  33 100 E3        29.94S
$$

WIZ056-057-062-063-064-067-068-210900-
SOUTH CENTRAL WISCONSIN

CITY           SKY/WX    TMP DP  RH WIND       PRES   REMARKS
REEDSBURG      FAIR      26  26 100 CALM      29.94F
BARABOO/DELLS  FAIR      29  28  96 CALM      29.94F FOG
LONE ROCK      FAIR      27  27 100 NE3       29.96S FOG
MINERAL POINT  LGT RAIN  32  32 100 SE5       29.94S VSB<1/4 WCI  27
MADISON        FAIR      28  26  92 S3        29.96S FOG
MIDDLETON      FAIR      30  30  98 CALM      29.96S
WATERTOWN      FAIR      26  26 100 CALM      29.96S FOG
MONROE         CLOUDY    32  32 100 CALM      29.94F FOG
JANESVILLE     CLOUDY    34  34 100 CALM      29.96S FOG
$$

WIZ051-052-058>065-066-070>072-210900-
SOUTHEAST WISCONSIN

CITY           SKY/WX    TMP DP  RH WIND       PRES   REMARKS
MILWAUKEE      FOG       31  29  92 CALM      29.98R VSB 3/4
WAUKESHA       FAIR      28  28 100 CALM      29.98S FOG
MILWAUKEE/TIMM FAIR      32  30  93 CALM      29.98S FOG
RACINE         FAIR      36  34  92 SW5       30.00R FOG     WCI  32
BURLINGTON     CLOUDY    31  30  95 CALM      29.98R FOG
KENOSHA        CLOUDY    38  34  85 S5        29.99R FOG     WCI  34
FOND DU LAC    FAIR      28  24  85 S3        29.96R FOG
SHEBOYGAN      FAIR      27  27 100 CALM      29.96R FOG
WEST BEND      FAIR      27  27 100 CALM      29.97R
JUNEAU         FAIR      29  28  96 SE3       29.97R FOG
$$

LSZ147-162-210900-
LAKE SUPERIOR

STATION/POSITION TIME  TEMP    WIND        PRES    WAVE
                       AIR SEA DIR/SP/G            HT/PER
                 (UTC) (F)     (DEG/KT/KT) (MB)    (FT/S)
DEVILS ISLAND    0800   33     220/  8/  9 1014.8R
SAXON HARBOR     0730   29     180/  3/  5 1013.5R
$$

LMZ867-665-643>646-210900-
LAKE MICHIGAN

STATION/POSITION TIME  TEMP    WIND        PRES    WAVE
                       AIR SEA DIR/SP/G            HT/PER
                 (UTC) (F)     (DEG/KT/KT) (MB)    (FT/S)
NORTHPORT PIER   0802   35     180/  2/  5 1014.9
KEWAUNEE LAKESHO 0742   29     290/  1/  2 1014.1R
SHEBOYGAN LAKESH 0800   33     230/  1/  2 1015.5R
PORT WASHINGTON  0740   30     250/  1/  2 1016.3R
MILWAUKEE LAKESH 0750   36     210/  5/  5   N/A
KENOSHA   LAKESH 0800   38     190/  4/  5 1015.9
$$

TC  - TEMPERATURE IN CELSIUS
VSB - VISIBILITY IN STATUTE MILES
WCI - WIND CHILL INDEX
HX  - HEAT INDEX




USA.gov is the U.S. government's official web portal to all federal, state and local government web resources and services.